Find Starlink 3681

NORAD ID: 51968 Int'l Des: 2022-025 Owner: SPXS Country: US Constellation: starlink operational
LEOCIRCULAR

リアルタイム位置

3D地球を読み込み中...

Starlink 3681について

説明を読み込み中...

次回通過

Passes for default location (London). Set your location on the main map for personalized predictions.

高度履歴

Loading altitude history...

軌道要素

1 51968U 22025N 26125.26205382 .00001249 00000-0 52007-4 0 9998
2 51968 53.1612 121.2564 0001132 82.7524 277.3606 15.31703791229680
Epoch: May 5, 2026 • Age: 6 hours

現在のステータス

高度 479.6 km
速度 7.63 km/s
衛星直下点 -28.40°S, 47°E
打ち上げ日 Mar 9, 2022
運用期間 4.1 years
タイプ internet

技術仕様

分類 Payload
質量 297.00 kg
乾燥質量 275.00 kg
総質量 297.00 kg
長さ 0.20 m
直径 2.80 m
スパン 9.00 m
形状 Box + pan
製造者 SPXS
バスタイプ Starlink
フェーズステータス In Orbit
所有者/国 SPXS/US

Most Searched